EW7440 Weather Reports


Display with metric or nautical units.
time (UTC)temp
F
wind
direction
speed
MPH
gust
MPH
rain 1hr
in
rain 24hr
in
rain mn
in
humidity
%
barometer
mb
20220927214510 79 356 4.0 1.0 0.00 0.00 0.00 37 1017.0
20220927214010 79 1 0.0 0.0 0.00 0.00 0.00 37 1017.1
20220927213510 79 297 0.0 0.0 0.00 0.00 0.00 37 1017.2
20220927213010 79 322 0.0 1.0 0.00 0.00 0.00 38 1017.1
20220927212510 79 306 0.0 1.0 0.00 0.00 0.00 36 1017.1
20220927212010 79 353 0.0 1.0 0.00 0.00 0.00 36 1017.1
20220927211510 79 17 0.0 1.0 0.00 0.00 0.00 35 1017.2
20220927210510 79 329 0.0 1.0 0.00 0.00 0.00 37 1017.2
20220927210010 79 3 0.0 1.0 0.00 0.00 0.00 38 1017.2
20220927205510 79 347 8.0 2.0 0.00 0.00 0.00 37 1017.2
20220927205010 79 321 10.0 1.0 0.00 0.00 0.00 37 1017.3
20220927203510 80 341 0.0 1.0 0.00 0.00 0.00 37 1017.4
20220927202510 79 22 0.0 0.0 0.00 0.00 0.00 39 1017.4
20220927202010 79 333 0.0 1.0 0.00 0.00 0.00 40 1017.4
20220927201510 79 351 0.0 1.0 0.00 0.00 0.00 38 1017.5
20220927201010 79 308 0.0 1.0 0.00 0.00 0.00 38 1017.5
20220927200510 79 25 0.0 1.0 0.00 0.00 0.00 38 1017.5
20220927200010 78 27 0.0 1.0 0.00 0.00 0.00 40 1017.6
20220927195510 78 340 0.0 1.0 0.00 0.00 0.00 40 1017.5
20220927194511 78 42 0.0 1.0 0.00 0.00 0.00 38 1017.5
20220927194011 78 310 0.0 1.0 0.00 0.00 0.00 39 1017.5
20220927193511 78 79 0.0 1.0 0.00 0.00 0.00 41 1017.6
20220927192511 78 1 0.0 1.0 0.00 0.00 0.00 38 1017.8
20220927191511 77 42 0.0 1.0 0.00 0.00 0.00 39 1017.9
20220927191011 77 4 0.0 1.0 0.00 0.00 0.00 38 1018.0
20220927190011 77 353 0.0 1.0 0.00 0.00 0.00 38 1018.1
20220927185511 77 9 0.0 1.0 0.00 0.00 0.00 39 1018.1
20220927185011 77 348 0.0 1.0 0.00 0.00 0.00 40 1018.2
20220927184511 77 67 0.0 0.0 0.00 0.00 0.00 40 1018.2
20220927184011 77 345 0.0 1.0 0.00 0.00 0.00 41 1018.4
20220927183511 77 14 0.0 1.0 0.00 0.00 0.00 39 1018.5
20220927183011 76 345 0.0 0.0 0.00 0.00 0.00 42 1018.5
20220927182511 77 345 0.0 0.0 0.00 0.00 0.00 42 1018.7
20220927182011 76 23 0.0 1.0 0.00 0.00 0.00 40 1018.7
20220927180011 76 38 0.0 1.0 0.00 0.00 0.00 42 1019.1
20220927175011 76 16 0.0 1.0 0.00 0.00 0.00 42 1019.2
20220927174511 75 331 0.0 1.0 0.00 0.00 0.00 42 1019.2
20220927173011 75 25 0.0 1.0 0.00 0.00 0.00 45 1019.3
20220927172011 74 181 0.0 1.0 0.00 0.00 0.00 48 1019.5
20220927171511 74 359 0.0 1.0 0.00 0.00 0.00 46 1019.5
20220927170011 72 358 0.0 2.0 0.00 0.00 0.00 45 1019.6
20220927164511 72 335 0.0 1.0 0.00 0.00 0.00 47 1019.7
20220927164011 71 319 0.0 1.0 0.00 0.00 0.00 45 1019.6
20220927163011 71 2 0.0 0.0 0.00 0.00 0.00 46 1019.7
20220927162011 70 1 0.0 0.0 0.00 0.00 0.00 49 1019.7
20220927161511 70 2 0.0 1.0 0.00 0.00 0.00 48 1019.8
20220927155011 68 7 5.0 1.0 0.00 0.00 0.00 50 1019.7
20220927154011 68 272 0.0 0.0 0.00 0.00 0.00 55 1019.7
20220927153511 67 16 0.0 0.0 0.00 0.00 0.00 56 1019.7
20220927152510 67 317 0.0 1.0 0.00 0.00 0.00 60 1019.7
20220927152011 66 324 0.0 1.0 0.00 0.00 0.00 59 1019.7
20220927151511 66 348 2.0 1.0 0.00 0.00 0.00 59 1019.6
20220927150010 65 10 0.0 1.0 0.00 0.00 0.00 62 1019.5
20220927144510 64 14 0.0 1.0 0.00 0.00 0.00 66 1019.4
20220927144010 64 1 2.0 1.0 0.00 0.00 0.00 64 1019.2
20220927143011 62 6 0.0 1.0 0.00 0.00 0.00 69 1019.2
20220927141010 60 306 0.0 0.0 0.00 0.00 0.00 74 1018.9
20220927140010 59 348 3.0 1.0 0.00 0.00 0.00 77 1018.7
20220927135510 59 14 0.0 0.0 0.00 0.00 0.00 76 1018.8
20220927135010 59 10 0.0 0.0 0.00 0.00 0.00 78 1018.7
20220927133511 58 351 1.0 0.0 0.00 0.00 0.00 78 1018.6
20220927133010 58 351 0.0 0.0 0.00 0.00 0.00 79 1018.5
20220927132011 58 3 0.0 1.0 0.00 0.00 0.00 77 1018.2
20220927131510 57 351 0.0 0.0 0.00 0.00 0.00 80 1018.1
20220927131011 57 2 1.0 0.0 0.00 0.00 0.00 80 1018.1
20220927125511 56 355 0.0 0.0 0.00 0.01 0.00 80 1018.0
20220927124011 56 352 0.0 0.0 0.00 0.01 0.00 80 1017.8
20220927123510 56 350 2.0 0.0 0.00 0.01 0.00 80 1017.7
20220927122010 56 12 1.0 0.0 0.00 0.01 0.00 79 1017.4
20220927121011 56 12 1.0 0.0 0.00 0.01 0.00 79 1017.5
20220927120010 56 13 2.0 0.0 0.00 0.01 0.00 79 1017.2
20220927115010 56 14 1.0 0.0 0.00 0.01 0.00 79 1017.1
20220927114510 56 7 1.0 0.0 0.00 0.01 0.00 78 1017.0
20220927112510 56 350 1.0 0.0 0.00 0.01 0.00 80 1016.8
20220927112010 56 10 0.0 0.0 0.00 0.01 0.00 79 1016.8
20220927110510 56 25 0.0 0.0 0.00 0.01 0.00 81 1016.7
20220927110010 56 360 0.0 0.0 0.00 0.01 0.00 81 1016.6
20220927105510 56 7 0.0 0.0 0.00 0.01 0.00 81 1016.7
20220927105010 56 7 1.0 0.0 0.00 0.01 0.00 81 1016.6
20220927104510 56 7 1.0 0.0 0.00 0.01 0.00 81 1016.6
20220927104010 56 7 0.0 0.0 0.00 0.01 0.00 81 1016.6
20220927102510 56 353 1.0 0.0 0.00 0.01 0.00 82 1016.4
20220927102010 56 351 0.0 0.0 0.00 0.01 0.00 81 1016.3
20220927101511 56 351 2.0 0.0 0.00 0.01 0.00 81 1016.3
20220927100511 56 349 0.0 0.0 0.00 0.01 0.00 82 1016.2
20220927095511 56 349 0.0 0.0 0.00 0.01 0.00 83 1016.0
20220927095011 56 349 0.0 0.0 0.00 0.01 0.00 84 1016.0
20220927094511 56 349 0.0 0.0 0.00 0.01 0.00 84 1016.0
20220927094011 56 343 1.0 0.0 0.00 0.01 0.00 84 1015.9
20220927093011 56 343 0.0 0.0 0.00 0.01 0.00 84 1015.9
20220927092010 56 343 0.0 0.0 0.00 0.01 0.00 84 1015.9
20220927091011 56 343 0.0 0.0 0.00 0.01 0.00 84 1015.9
20220927085011 56 343 0.0 0.0 0.00 0.01 0.00 83 1015.7
20220927084511 56 343 0.0 0.0 0.00 0.01 0.00 84 1015.7
20220927084011 56 343 1.0 0.0 0.00 0.01 0.00 84 1015.7
20220927082511 56 343 0.0 0.0 0.00 0.01 0.00 83 1015.8
20220927082011 56 343 0.0 0.0 0.00 0.01 0.00 83 1015.7
20220927081011 57 343 0.0 0.0 0.00 0.01 0.00 83 1015.7
20220927080511 57 343 0.0 0.0 0.00 0.01 0.00 83 1015.7
20220927080011 57 343 1.0 0.0 0.00 0.01 0.00 84 1015.7
20220927075511 57 343 0.0 0.0 0.00 0.01 0.00 84 1015.7
20220927075011 57 343 0.0 0.0 0.00 0.01 0.00 83 1015.7
20220927073011 58 343 0.0 0.0 0.00 0.01 0.00 81 1015.8
20220927071511 58 343 0.0 0.0 0.00 0.01 0.00 80 1015.7
20220927071011 59 343 0.0 0.0 0.00 0.01 0.00 80 1015.8
20220927064511 60 343 0.0 0.0 0.00 0.01 0.00 79 1015.9
20220927064011 60 343 0.0 0.0 0.00 0.01 0.00 77 1015.9
20220927063511 60 343 0.0 0.0 0.00 0.01 0.00 77 1015.9
20220927062511 60 343 0.0 0.0 0.00 0.01 0.00 75 1015.8
20220927062011 60 343 0.0 0.0 0.00 0.01 0.00 75 1016.9
20220927061511 60 343 0.0 0.0 0.00 0.01 0.00 74 1016.9
20220927061011 61 343 0.0 0.0 0.00 0.01 0.00 76 1016.8
20220927060511 61 343 0.0 0.0 0.00 0.01 0.00 76 1016.8
20220927055511 62 343 0.0 0.0 0.00 0.01 0.00 74 1016.9
20220927055011 62 343 0.0 0.0 0.00 0.01 0.00 74 1017.0
20220927054510 62 343 0.0 0.0 0.00 0.01 0.00 75 1017.0
20220927053510 62 343 0.0 0.0 0.00 0.01 0.00 74 1016.9
20220927053011 63 343 0.0 0.0 0.00 0.01 0.00 72 1017.0
20220927052011 63 343 0.0 0.0 0.00 0.01 0.00 71 1017.1
20220927051511 63 343 0.0 0.0 0.00 0.01 0.00 72 1017.2
20220927050010 64 343 0.0 0.0 0.00 0.01 0.01 70 1017.1
20220927045511 64 343 0.0 0.0 0.00 0.01 0.01 71 1017.2
20220927045010 64 343 0.0 0.0 0.00 0.01 0.01 70 1017.2
20220927044510 64 343 0.0 0.0 0.00 0.01 0.01 70 1017.3
20220927044010 64 343 0.0 0.0 0.00 0.01 0.01 71 1017.2
20220927043511 64 343 0.0 0.0 0.00 0.01 0.01 69 1017.3
20220927043010 64 343 0.0 0.0 0.00 0.01 0.01 69 1017.3
20220927042510 64 343 0.0 0.0 0.00 0.01 0.01 69 1017.1
20220927042011 64 343 0.0 0.0 0.00 0.01 0.01 69 1017.0
20220927041511 64 343 1.0 0.0 0.00 0.01 0.01 68 1017.1
20220927040011 64 344 0.0 0.0 0.00 0.01 0.01 71 1016.9
20220927035511 64 343 0.0 0.0 0.00 0.01 0.01 70 1017.0
20220927034511 64 47 0.0 0.0 0.00 0.01 0.01 71 1017.0
20220927034010 63 26 0.0 0.0 0.00 0.01 0.01 74 1016.8
20220927032510 63 27 0.0 0.0 0.00 0.01 0.01 74 1016.6
20220927031510 62 33 0.0 0.0 0.00 0.01 0.01 77 1016.6
20220927031011 62 318 0.0 0.0 0.00 0.01 0.01 78 1016.6
20220927030510 62 318 0.0 0.0 0.00 0.01 0.01 80 1016.5
20220927030010 62 307 0.0 0.0 0.00 0.01 0.01 83 1016.6
20220927025511 62 307 0.0 0.0 0.00 0.01 0.01 83 1016.5
20220927024510 62 307 0.0 0.0 0.00 0.01 0.01 84 1016.3
20220927024010 62 307 0.0 0.0 0.00 0.01 0.01 84 1016.3
20220927023510 63 307 0.0 0.0 0.00 0.01 0.01 84 1016.3
20220927023011 63 307 0.0 0.0 0.00 0.01 0.01 84 1016.3
20220927022511 63 307 0.0 0.0 0.00 0.01 0.01 83 1016.1
20220927022010 63 307 0.0 0.0 0.00 0.01 0.01 83 1016.0
20220927021511 63 307 0.0 0.0 0.00 0.01 0.01 83 1016.0
20220927015510 64 307 0.0 0.0 0.00 0.01 0.01 81 1015.7
20220927015010 64 307 0.0 0.0 0.00 0.01 0.01 81 1015.7
20220927014510 65 307 0.0 0.0 0.00 0.01 0.01 80 1015.6
20220927014010 65 307 0.0 0.0 0.00 0.01 0.01 80 1015.5
20220927012010 66 307 0.0 0.0 0.00 0.01 0.01 78 1015.6
20220927011511 66 307 0.0 0.0 0.00 0.01 0.01 78 1015.5
20220927011010 67 307 0.0 0.0 0.00 0.01 0.01 77 1015.5
20220927010511 67 307 0.0 0.0 0.00 0.01 0.01 77 1015.3
20220927005510 68 307 0.0 0.0 0.00 0.01 0.01 76 1015.2
20220927005010 68 307 0.0 0.0 0.00 0.01 0.01 76 1015.1
20220927004510 69 307 0.0 0.0 0.00 0.01 0.01 74 1015.0
20220927004010 69 307 0.0 0.0 0.00 0.01 0.01 73 1014.9
20220927003510 70 307 0.0 0.0 0.00 0.01 0.01 72 1014.8
20220927003010 70 307 0.0 0.0 0.00 0.01 0.01 72 1014.8
20220927002510 71 307 0.0 0.0 0.00 0.01 0.01 70 1014.6
20220927002010 71 307 0.0 0.0 0.00 0.01 0.01 70 1014.5
20220927001511 72 307 0.0 0.0 0.00 0.01 0.01 69 1014.5
20220927000511 73 307 0.0 0.0 0.00 0.01 0.01 65 1014.2
20220927000011 74 307 0.0 0.0 0.00 0.01 0.01 63 1014.3
20220926235511 74 307 0.0 0.0 0.00 0.01 0.01 62 1014.2
20220926234511 76 307 0.0 0.0 0.00 0.01 0.01 60 1014.1
20220926234011 76 306 0.0 0.0 0.00 0.01 0.01 58 1014.2
20220926233011 77 307 0.0 0.0 0.00 0.01 0.01 54 1014.0
20220926231511 78 306 0.0 0.0 0.00 0.01 0.01 51 1014.1
20220926231011 78 329 0.0 0.0 0.00 0.01 0.01 50 1014.0
20220926230511 79 318 0.0 0.0 0.00 0.01 0.01 50 1014.0
20220926230011 80 328 0.0 0.0 0.00 0.01 0.01 51 1014.0
20220926224511 81 233 0.0 0.0 0.00 0.01 0.01 48 1014.1
20220926223011 82 320 0.0 1.0 0.00 0.01 0.01 46 1014.0
20220926222511 83 343 1.0 1.0 0.00 0.01 0.01 46 1014.0
20220926222011 83 333 2.0 1.0 0.00 0.01 0.01 46 1014.0
20220926221511 84 42 0.0 0.0 0.00 0.01 0.01 52 1013.9
20220926221011 84 24 0.0 0.0 0.00 0.01 0.01 50 1013.9
20220926220511 84 326 0.0 1.0 0.00 0.01 0.01 48 1013.9
20220926220011 84 333 0.0 1.0 0.00 0.01 0.01 48 1013.9